GFSMW_925_spd_162.txt.gz
Wind_Speed
13 11 6 5 4 5 5 7 7 9 9 10 12 9 10 11 10 10 12 12 14 14 12 12 14 14 14 16 17 19 20 17 17 21 23 30 30 30 29 33 32 31 30
13 12 9 6 4 5 6 6 7 8 9 10 10 9 12 8 10 11 11 12 14 14 14 14 14 15 16 17 16 18 18 16 14 14 18 10 21 28 30 30 32 31 31
16 12 10 6 4 5 6 6 6 7 8 10 8 10 9 8 8 12 11 15 14 14 14 14 14 15 16 17 18 18 18 18 18 15 11 7 11 11 22 27 31 29 31
15 12 10 7 4 4 4 5 6 7 7 9 8 10 11 12 12 12 13 15 15 16 15 16 16 16 17 17 18 17 19 18 21 18 16 23 23 6 8 14 21 27 29
14 13 10 8 5 4 4 4 6 6 7 8 8 10 11 12 11 13 15 15 15 15 15 16 18 18 16 17 19 21 20 20 22 20 20 20 25 28 12 12 9 21 24
14 12 10 8 6 4 4 4 5 6 7 7 8 9 9 12 13 13 15 16 16 16 16 18 19 19 19 19 20 22 23 23 23 23 23 22 16 14 15 14 14 15 22
14 13 10 8 5 3 3 3 5 6 7 8 8 9 10 11 12 13 16 18 17 16 17 20 21 21 21 21 21 22 24 24 24 24 24 25 24 24 27 26 14 10 24
13 12 9 7 5 3 4 5 6 7 8 9 10 11 12 13 13 13 16 16 18 19 21 21 22 22 21 22 21 23 23 24 26 28 27 28 28 26 27 29 20 14 14
14 12 10 7 5 2 3 5 7 8 9 11 11 11 12 13 15 14 15 17 18 20 21 22 22 22 22 21 21 23 24 24 24 27 27 30 29 29 31 31 32 19 14
14 12 11 8 4 2 4 6 8 10 10 11 12 13 13 14 15 15 17 20 21 22 22 22 22 23 22 22 22 22 22 24 24 22 26 29 29 32 32 33 33 34 25
14 12 11 9 5 2 4 6 8 10 11 12 13 14 14 15 16 16 17 20 23 23 22 22 23 23 23 23 24 24 24 25 26 26 27 31 31 33 33 34 34 36 34
14 11 11 8 5 4 6 8 10 11 12 13 13 13 14 15 18 19 18 20 22 22 23 22 22 23 23 24 25 25 25 28 30 31 30 33 33 35 32 34 38 36 38
13 11 9 8 5 4 6 7 10 11 13 14 14 14 15 17 18 20 21 21 23 22 23 22 22 23 23 25 25 24 29 32 33 34 33 35 35 35 34 32 34 37 39
14 12 8 7 5 5 6 8 9 10 12 13 14 15 16 17 17 19 21 22 23 22 23 23 23 23 24 25 22 29 34 35 36 37 34 34 33 36 35 33 36 35 37
15 12 10 7 6 5 6 7 7 8 9 11 13 15 17 17 17 19 20 21 22 22 23 24 24 24 24 22 28 33 35 37 38 36 34 31 32 39 41 37 37 38 34
15 12 11 10 5 4 5 7 8 9 9 9 11 13 16 18 20 20 21 22 22 23 23 23 24 26 25 26 32 35 37 39 35 36 35 33 34 32 36 36 37 41 39
14 13 10 9 5 4 6 7 8 7 9 9 11 14 16 18 19 20 21 22 23 24 24 24 26 26 26 29 34 38 41 34 34 34 35 34 31 32 34 33 36 31 43
15 12 11 9 4 4 5 5 6 7 8 10 13 14 16 17 17 20 22 22 22 23 24 24 26 27 27 31 36 42 37 34 33 34 33 33 33 31 32 35 34 36 35
15 15 12 8 5 5 5 5 6 8 10 13 14 14 15 17 18 19 22 22 23 23 23 23 25 26 29 33 38 43 38 33 34 34 31 31 33 34 39 37 33 32 37
17 15 11 8 6 5 5 6 8 10 12 13 12 13 14 16 18 19 21 22 22 22 23 24 24 24 29 32 37 41 37 34 35 32 31 30 33 43 43 35 28 27 33
16 13 11 9 7 7 7 7 8 11 11 12 12 13 14 15 17 19 19 20 22 22 23 24 25 26 29 32 37 40 38 37 36 31 33 33 39 42 36 31 30 29 37
13 11 11 10 9 9 8 9 11 10 10 11 12 13 15 17 18 17 19 20 22 23 24 26 26 27 30 34 39 39 39 40 36 33 35 37 40 37 33 31 34 37 30
12 11 11 11 11 10 10 10 10 11 10 10 13 14 15 15 16 17 18 20 22 24 25 26 26 29 30 34 38 37 38 40 38 35 36 37 38 37 32 35 36 33 13
12 12 11 11 11 10 10 10 10 11 10 12 13 13 14 16 16 16 18 18 21 24 25 26 27 28 29 34 39 38 35 39 38 38 35 35 34 33 34 36 39 35 30
12 11 11 11 11 10 10 11 12 12 12 12 13 15 15 16 16 15 14 18 18 21 24 26 26 28 29 35 37 37 36 38 38 34 34 37 39 38 40 40 38 37 36
13 12 11 11 11 10 10 11 12 12 12 12 13 14 14 15 16 16 16 14 17 19 22 25 26 28 28 32 35 36 33 36 36 31 32 34 36 35 37 37 37 37 37

GFSMW_925_spd_168.txt.gz
Wind_Speed
14 21 17 14 11 9 8 6 5 4 4 3 4 4 5 6 6 6 10 9 13 14 16 16 17 17 18 19 20 20 20 21 22 22 27 23 25 23 24 24 30 29 29
17 19 17 13 9 8 5 5 4 4 4 4 4 3 3 2 2 6 8 9 13 14 14 16 16 18 20 18 19 18 19 17 22 16 20 6 14 11 27 21 21 17 27
19 17 17 15 11 9 6 4 3 4 5 5 4 5 3 4 7 10 9 13 11 12 13 15 16 17 17 17 18 18 18 18 20 16 9 5 5 15 16 36 25 29 35
20 18 17 17 15 11 7 4 3 4 5 6 6 7 7 8 8 8 9 10 10 13 13 13 15 17 16 15 17 17 19 17 17 18 9 18 19 5 9 9 35 33 29
19 20 17 19 15 12 8 5 5 5 5 6 7 7 7 7 7 9 11 10 14 12 13 14 18 17 17 17 18 19 19 18 16 17 18 17 17 20 9 15 14 35 30
19 17 21 20 19 11 7 6 6 6 5 6 6 7 6 7 9 11 12 14 13 13 15 18 17 19 19 19 19 20 20 19 18 18 18 16 12 15 13 12 13 18 31
17 17 14 16 18 13 9 6 4 6 5 5 6 6 7 8 9 11 13 13 13 14 15 18 18 19 19 19 20 20 19 19 19 19 20 20 20 20 22 24 16 14 26
16 16 14 14 16 13 9 6 5 6 4 5 5 6 7 7 8 10 11 12 14 15 18 19 19 20 20 20 21 20 20 19 20 20 21 22 21 21 21 22 20 15 14
14 14 15 15 17 13 9 5 3 5 5 5 5 5 6 7 8 9 9 11 13 16 19 20 20 20 20 20 21 20 21 20 21 22 20 20 23 24 24 24 24 19 16
13 12 12 16 16 15 12 7 3 6 5 5 5 6 6 7 8 9 10 12 13 15 18 18 19 19 19 20 20 20 22 23 21 21 22 24 25 26 27 28 26 26 25
12 11 13 16 15 14 13 9 5 6 5 5 5 5 7 8 9 10 11 13 14 16 17 18 18 19 20 20 20 21 21 22 24 25 26 27 28 27 25 26 27 28 28
12 13 15 17 16 14 11 9 7 6 5 5 5 6 7 8 8 9 12 13 15 15 17 17 19 19 19 20 22 19 22 25 28 29 29 29 29 29 27 28 28 28 29
14 14 12 13 15 13 10 10 7 6 4 4 5 6 6 7 8 10 13 14 14 16 16 17 18 20 20 22 16 21 25 27 26 28 30 30 31 29 28 27 27 28 25
13 12 10 12 17 11 9 8 7 5 4 4 5 5 6 8 10 11 12 13 14 16 16 17 18 18 19 18 21 26 28 29 30 29 28 29 29 29 29 31 31 31 28
18 15 11 9 14 7 7 7 6 6 4 4 5 7 8 9 10 11 12 13 15 15 15 17 18 17 19 17 26 28 30 32 32 31 29 28 30 31 29 28 30 30 28
18 18 16 15 11 9 8 8 6 5 6 5 6 6 7 8 11 12 14 15 15 15 16 17 16 18 18 20 25 29 32 31 30 30 33 33 30 27 29 25 26 31 32
21 19 17 17 15 11 9 8 7 6 6 5 6 7 8 9 11 13 14 15 15 16 16 17 19 20 19 23 28 32 31 29 28 29 33 35 30 29 29 34 34 34 34
19 16 18 18 15 12 9 9 8 7 7 6 6 7 8 9 11 12 13 14 15 16 18 18 20 21 19 26 29 34 32 29 29 31 32 30 33 32 38 40 36 33 31
16 20 20 17 14 11 10 10 9 8 7 6 6 7 7 9 11 12 13 15 16 17 18 19 21 21 22 26 30 34 31 29 30 32 29 30 30 36 40 38 34 35 32
25 22 20 17 14 11 10 10 9 8 6 6 5 6 7 8 10 11 13 15 17 17 19 20 22 21 25 26 31 34 31 30 31 32 29 31 33 39 39 37 34 31 37
24 22 19 16 14 12 10 11 8 7 5 5 6 8 8 8 10 12 14 16 18 18 20 20 22 22 23 28 30 34 31 30 30 31 33 34 38 39 38 36 33 39 44
21 20 18 16 13 11 11 10 8 7 6 7 7 9 7 9 10 12 14 16 18 18 19 21 21 22 23 26 31 34 33 31 30 31 33 34 38 38 37 35 37 38 35
18 18 18 16 13 11 11 10 6 7 8 9 8 9 9 9 11 13 14 15 16 17 17 20 20 23 24 26 30 33 33 31 31 33 31 34 37 37 37 40 40 39 35
16 17 18 17 15 12 11 9 7 8 9 9 8 9 10 10 11 12 12 12 12 13 13 17 19 23 24 27 31 33 33 31 31 36 33 33 34 34 35 38 40 39 38
17 17 17 16 15 13 12 10 8 8 9 10 8 9 10 12 12 9 9 9 9 9 11 17 19 23 24 29 32 35 35 32 34 33 32 33 36 37 39 40 40 41 42
16 16 17 17 15 14 13 11 10 9 9 9 10 10 11 11 11 12 10 11 12 9 10 15 21 24 23 28 30 33 32 31 32 29 30 30 33 33 36 37 39 41 42

GFSMW_925_spd_174.txt.gz
Wind_Speed
10 22 29 36 35 31 26 22 21 16 13 13 15 12 11 12 13 13 12 14 15 15 15 17 19 20 21 20 22 22 22 22 28 18 21 13 16 3 22 21 25 20 27
14 18 26 30 31 33 28 25 22 20 18 14 10 7 10 14 14 14 14 14 13 12 14 16 19 20 20 21 22 23 22 16 25 17 13 5 7 10 37 18 18 26 25
21 17 21 25 32 33 31 28 22 19 16 16 14 10 18 17 14 14 17 15 13 13 14 15 17 19 20 19 19 18 18 17 18 21 9 4 4 19 7 30 20 31 29
18 20 18 21 26 30 31 28 23 20 18 16 17 21 19 19 14 17 16 15 13 15 16 17 19 20 20 18 18 16 16 16 16 17 14 12 14 4 8 8 31 23 27
24 21 17 26 30 35 33 29 24 20 17 17 17 19 20 17 18 15 14 15 15 14 16 17 18 19 19 17 18 19 18 17 14 15 18 17 17 14 9 13 18 28 22
18 15 23 28 30 34 33 29 26 23 17 16 16 17 18 17 14 13 13 13 14 14 16 16 18 18 17 18 17 16 17 18 16 17 16 15 13 17 14 13 16 16 28
18 19 21 22 26 30 31 29 27 24 20 18 17 17 17 15 13 13 13 12 13 16 17 17 18 17 17 16 16 15 16 16 18 17 16 15 15 17 20 21 20 13 24
14 16 16 22 24 26 28 28 27 26 23 19 19 17 16 16 15 14 12 13 12 13 14 16 17 17 16 16 16 14 14 15 16 20 18 19 19 19 19 20 22 15 12
16 18 15 20 22 26 29 28 27 25 22 22 20 17 15 14 15 13 12 12 12 11 14 15 16 16 15 16 16 15 12 16 20 25 21 20 19 20 20 21 21 16 13
17 15 16 19 21 26 26 28 27 25 22 20 18 16 15 13 12 11 12 13 13 13 14 15 16 16 15 15 14 14 15 24 24 18 21 21 19 20 21 21 22 22 22
15 13 13 19 23 26 30 27 25 23 21 18 16 14 14 13 12 12 12 13 13 13 14 15 17 16 15 15 14 16 19 24 22 23 20 22 22 21 22 22 22 23 24
9 12 15 22 22 23 27 26 23 21 20 18 15 15 14 13 12 12 12 11 13 13 15 16 15 14 13 14 16 21 23 23 24 23 23 22 22 22 23 23 24 23 23
7 10 12 15 19 22 25 25 22 20 19 17 17 17 15 12 12 12 11 13 13 14 14 15 13 17 11 14 17 22 22 24 21 22 23 20 25 24 24 23 22 23 23
15 9 6 8 19 22 27 27 22 20 21 18 19 17 14 12 12 13 13 12 11 12 14 12 13 13 10 17 19 22 24 23 21 20 20 24 24 25 24 25 23 27 28
15 15 15 10 17 21 25 27 23 22 21 21 18 16 14 12 12 12 11 11 13 14 12 11 13 13 13 16 20 23 26 21 20 21 21 22 21 21 25 25 28 29 27
18 18 18 19 24 26 24 26 24 23 23 20 18 14 13 13 12 12 13 14 14 13 12 14 13 13 12 18 20 22 26 21 20 21 23 24 20 26 24 26 27 28 28
18 19 19 19 24 23 26 28 27 24 23 20 16 15 16 14 14 13 17 17 16 13 15 14 13 14 16 18 20 21 25 19 20 21 24 23 23 25 28 30 29 25 24
18 18 17 22 25 25 27 26 23 24 24 20 16 15 15 13 15 18 18 16 14 14 14 14 15 15 15 18 20 20 23 19 19 21 23 23 25 27 32 31 28 27 25
15 22 17 21 22 23 28 23 23 26 24 20 18 17 15 16 18 18 16 13 13 13 13 14 14 15 17 17 21 22 23 21 19 23 23 23 26 30 31 30 29 28 27
19 20 28 25 23 24 24 22 22 22 23 21 18 18 18 18 18 15 14 12 14 15 15 15 15 13 16 16 20 23 25 21 21 27 24 24 26 30 30 29 29 29 32
28 23 21 20 21 23 24 24 23 22 24 22 19 22 20 18 15 14 12 12 14 15 17 17 14 16 17 16 17 22 24 21 25 24 27 28 28 29 29 28 27 31 37
17 21 27 25 22 24 26 22 21 25 27 23 23 22 19 16 14 13 12 13 13 15 14 15 16 17 18 17 16 21 22 20 24 27 27 27 27 28 29 28 30 34 32
19 20 20 21 24 27 28 22 25 28 28 24 23 21 17 15 13 13 12 12 10 12 13 15 17 16 19 18 19 20 23 21 23 24 23 23 26 29 32 30 31 33 32
18 20 22 21 20 25 26 28 29 28 27 24 24 21 18 16 14 12 11 9 8 9 11 14 17 15 18 19 21 21 25 24 27 26 28 25 24 26 28 30 31 31 31
20 21 21 20 18 22 23 27 29 28 27 25 23 21 18 16 14 11 8 6 6 5 8 12 16 17 18 18 18 20 22 22 24 23 23 25 26 27 32 32 32 32 34
19 20 20 21 19 22 22 25 28 27 28 25 22 20 18 15 13 10 8 5 4 4 5 6 11 13 11 14 16 18 20 19 22 24 20 22 24 23 27 31 34 31 36

GFSMW_925_spd_177.txt.gz
Wind_Speed
9 20 25 32 36 35 33 30 29 26 27 26 26 23 20 19 16 15 14 13 14 14 15 17 18 20 22 22 23 23 25 25 32 17 15 11 7 2 27 21 19 30 28
12 13 23 28 33 35 33 29 28 27 25 28 25 22 24 18 18 17 15 13 12 13 16 17 19 19 20 21 22 23 21 17 28 13 8 5 6 9 15 24 21 30 29
18 15 18 27 29 33 33 31 29 28 26 26 23 25 24 22 21 19 18 15 13 14 15 17 18 19 19 20 19 19 19 16 20 20 10 4 4 17 8 15 27 24 32
13 14 18 23 28 31 31 30 27 26 24 23 28 31 27 23 20 22 19 16 13 14 15 16 16 16 17 19 19 19 18 17 16 12 14 10 8 3 6 12 23 25 25
18 20 19 24 25 33 33 30 27 25 23 23 27 28 25 25 23 21 19 16 14 14 15 15 15 17 18 18 19 18 18 17 15 13 14 10 11 10 7 9 19 28 23
15 15 19 25 27 32 33 31 29 26 25 25 25 26 28 24 22 19 18 14 13 13 14 14 16 17 18 19 18 17 17 16 15 15 15 14 9 13 10 8 14 15 27
15 17 19 20 25 26 30 30 30 28 25 24 23 23 23 19 19 17 15 13 13 14 14 14 16 17 17 18 16 16 15 15 16 17 14 14 14 14 15 14 14 11 20
12 16 17 24 26 26 26 29 31 29 26 25 24 21 20 19 18 15 14 14 14 13 12 13 14 15 14 15 14 13 13 16 20 17 16 15 15 14 15 13 17 12 9
12 14 16 24 26 24 25 29 29 28 26 25 24 20 19 19 18 15 14 14 12 13 13 13 13 13 13 13 13 10 16 20 19 17 17 16 16 14 15 16 17 13 10
10 13 14 19 21 25 31 31 31 30 26 24 22 21 20 18 16 14 15 14 14 13 13 13 13 12 11 12 13 13 19 22 20 15 18 18 18 17 17 17 18 18 19
8 10 10 18 22 24 28 31 32 31 27 24 22 21 20 18 16 16 15 14 14 12 13 13 13 11 13 13 16 17 20 22 19 19 18 20 17 22 22 20 19 18 18
5 3 8 17 22 25 28 30 30 28 26 24 23 22 20 17 17 16 15 12 14 14 13 13 14 11 14 15 20 21 21 20 19 19 21 18 20 22 23 17 20 20 19
5 2 3 10 20 21 23 27 29 29 28 25 24 22 19 18 17 18 15 14 14 13 13 13 13 12 14 17 20 21 22 19 18 17 19 21 23 23 18 22 20 20 24
20 14 9 6 18 22 23 23 29 32 29 26 24 21 18 18 19 17 15 16 14 13 12 12 11 13 16 17 17 21 24 17 17 19 19 18 20 19 24 22 22 25 25
16 15 15 13 17 22 23 25 29 33 31 29 25 23 20 18 18 17 17 16 13 12 11 12 13 11 14 16 18 20 22 17 17 17 18 18 17 18 20 22 26 26 27
17 13 15 15 18 22 23 26 28 29 30 29 27 24 22 18 18 19 18 16 13 11 11 12 11 12 13 13 15 17 19 15 14 16 18 19 16 21 21 24 25 25 24
18 15 20 21 25 24 24 24 27 31 29 29 27 24 22 20 22 20 17 15 13 11 12 12 11 12 13 13 15 15 17 13 14 17 18 18 19 22 25 25 25 21 23
10 15 15 22 22 22 21 24 26 28 24 24 27 25 23 23 21 19 16 13 11 12 12 11 12 11 9 12 16 16 19 14 14 17 17 17 21 24 27 25 25 24 21
6 14 24 28 28 28 29 29 24 25 23 23 27 24 24 23 20 18 15 12 12 12 11 11 12 11 10 11 16 18 21 15 18 18 18 18 21 24 26 26 25 25 25
15 22 28 29 31 29 31 29 25 23 18 22 26 24 22 21 19 16 15 14 13 11 10 11 11 10 13 10 14 17 20 17 23 26 22 19 21 24 25 25 24 25 29
12 19 23 26 29 32 30 24 24 23 23 26 26 23 21 20 18 16 16 15 16 16 13 11 11 12 13 12 13 16 19 16 21 24 26 26 22 24 25 23 22 26 32
12 15 16 19 21 23 27 26 22 24 29 29 27 24 21 19 17 17 17 15 15 15 14 10 10 12 12 12 12 14 17 15 19 21 22 24 21 21 24 24 25 27 27
15 17 20 20 22 25 22 23 25 30 29 29 26 23 19 18 17 18 18 15 14 14 12 12 9 11 12 13 13 14 18 16 21 21 18 19 21 21 26 26 26 30 25
14 18 21 20 20 22 23 26 28 31 30 28 27 24 22 19 17 15 15 14 12 11 10 10 12 9 12 14 15 17 20 19 23 25 23 23 26 25 23 28 32 31 26
15 18 20 20 19 23 21 25 29 30 27 26 24 23 21 20 18 14 13 11 9 7 8 8 10 10 12 14 13 15 18 18 19 24 24 27 29 29 27 29 28 31 30
18 19 21 21 18 20 23 28 31 30 27 22 22 23 22 20 18 16 13 9 6 6 4 4 7 8 8 10 12 14 15 15 18 24 24 23 22 22 24 24 29 30 32